Fort Sill, OK

1:24 PM CDT on August 21, 2017 (GMT -0500)
Post Army Air Field

Weather History for KFSI - October, 2013

Change the Weather History Date:

Wednesday, October 30, 2013

  Actual Average Record
Temperature  
Mean Temperature 72 °F -  
Max Temperature 77 °F 68 °F 89 °F (2003)
Min Temperature 67 °F 47 °F 25 °F (1993)
Cooling Degree Days 7    
Growing Degree Days 22 (Base 50)    
Moisture  
Dew Point 68 °F    
Average Humidity 91    
Maximum Humidity 100    
Minimum Humidity 74    
Precipitation  
Precipitation 0.08 in - - ()
Sea Level Pressure  
Sea Level Pressure 29.83 in    
Wind  
Wind Speed 14 mph (SSE)    
Max Wind Speed 23 mph    
Max Gust Speed 30 mph    
Visibility 10 miles    
Events Rain , Thunderstorm    
Averages and records for this station are not official NWS values.
T = Trace of Precipitation, MM = Missing Value Source: NWS Daily Summary

Daily Weather History Graph

Daily Weather History Graph

Search for Another Location

Airport or City:

Trip Planner

Search our weather history database for the weather conditions in past years. The results will help you decide how hot, cold, wet, or windy it might be!

Date:

Astronomy

Oct. 30, 2013 Rise Set
Actual Time 7:52 AM CDT 6:41 PM CDT
Civil Twilight 7:26 AM CDT 7:07 PM CDT
Nautical Twilight 6:56 AM CDT 7:37 PM CDT
Astronomical Twilight 6:27 AM CDT 8:06 PM CDT
Moon 3:52 AM CDT (10/30) 4:19 PM CDT (10/30)
Length of Visible Light 11h 40m
Length of Day
10h 49m
Waning Crescent, 17% of the Moon is Illuminated
Oct 30
Waning Crescent
Nov 3
New
Nov 9
First Quarter
Nov 17
Full
Nov 25
Last Quarter

Hourly Weather History & Observations

Time (CDT) Temp. Dew Point Humidity Pressure Visibility Wind Dir Wind Speed Gust Speed Precip Events Conditions
12:08 AM 69.8 °F 68.0 °F 94% 29.96 in 10.0 mi South 11.5 mph - N/A   Overcast
12:58 AM 69.4 °F 68.4 °F 96% 29.93 in 10.0 mi South 13.8 mph - N/A   Mostly Cloudy
1:18 AM 69.8 °F 68.0 °F 94% 29.94 in 10.0 mi South 12.7 mph - N/A   Mostly Cloudy
1:58 AM 68.7 °F 67.8 °F 97% 29.91 in 10.0 mi SSE 11.5 mph - N/A   Scattered Clouds
2:58 AM 68.2 °F 67.6 °F 98% 29.90 in 10.0 mi SSE 10.4 mph - N/A   Partly Cloudy
3:58 AM 68.7 °F 67.8 °F 97% 29.90 in 10.0 mi SSE 10.4 mph - N/A   Overcast
4:03 AM 68.0 °F 68.0 °F 100% 29.92 in 10.0 mi SSE 11.5 mph - N/A   Overcast
4:58 AM 70.0 °F 66.9 °F 90% 29.89 in 10.0 mi SSE 15.0 mph 20.7 mph N/A   Overcast
5:08 AM 69.8 °F 66.2 °F 88% 29.91 in 10.0 mi SSE 12.7 mph - N/A   Overcast
5:18 AM 69.8 °F 66.2 °F 88% 29.91 in 10.0 mi SSE 15.0 mph - N/A   Overcast
5:32 AM 69.8 °F 66.2 °F 88% 29.91 in 10.0 mi SSE 15.0 mph 20.7 mph N/A Rain Light Rain
5:39 AM 69.8 °F 66.2 °F 88% 29.91 in 10.0 mi SSE 16.1 mph - N/A Rain , Thunderstorm Light Thunderstorms and Rain
5:54 AM 69.8 °F 66.2 °F 88% 29.90 in 8.0 mi SSE 16.1 mph - N/A Rain , Thunderstorm Light Thunderstorms and Rain
5:58 AM 68.9 °F 66.9 °F 93% 29.88 in 10.0 mi SSE 16.1 mph - 0.02 in Rain , Thunderstorm Light Thunderstorms and Rain
6:01 AM 68.0 °F 66.2 °F 94% 29.91 in 10.0 mi South 12.7 mph 21.9 mph N/A Rain , Thunderstorm Light Rain
6:06 AM 68.0 °F 66.2 °F 94% 29.92 in 10.0 mi South 11.5 mph 21.9 mph N/A Thunderstorm Light Drizzle
6:11 AM 68.0 °F 66.2 °F 94% 29.91 in 10.0 mi South 12.7 mph - N/A Thunderstorm Overcast
6:16 AM 68.0 °F 66.2 °F 94% 29.91 in 10.0 mi South 15.0 mph - N/A Thunderstorm Overcast
6:26 AM 68.0 °F 66.2 °F 94% 29.91 in 10.0 mi South 12.7 mph - N/A   Mostly Cloudy
6:36 AM 68.0 °F 66.2 °F 94% 29.91 in 10.0 mi South 13.8 mph - N/A   Overcast
6:57 AM 68.0 °F 66.2 °F 94% 29.90 in 10.0 mi South 15.0 mph 23.0 mph N/A Rain , Thunderstorm Light Rain
6:58 AM 68.0 °F 66.2 °F 94% 29.88 in 10.0 mi South 15.0 mph 23.0 mph 0.00 in Rain , Thunderstorm Light Rain
7:01 AM 68.0 °F 66.2 °F 94% 29.90 in 10.0 mi South 13.8 mph 23.0 mph N/A Rain , Thunderstorm Light Thunderstorms and Rain
7:16 AM 68.0 °F 66.2 °F 94% 29.89 in 9.0 mi South 12.7 mph - N/A Rain , Thunderstorm Light Rain
7:21 AM 68.0 °F 66.2 °F 94% 29.89 in 10.0 mi South 12.7 mph - N/A Thunderstorm Overcast
7:58 AM 68.5 °F 67.1 °F 95% 29.87 in 10.0 mi South 11.5 mph - 0.02 in   Overcast
8:13 AM 68.0 °F 68.0 °F 100% 29.89 in 10.0 mi South 11.5 mph - N/A   Overcast
8:58 AM 68.9 °F 67.3 °F 95% 29.87 in 10.0 mi South 10.4 mph - N/A   Overcast
9:03 AM 68.0 °F 68.0 °F 100% 29.89 in 10.0 mi South 10.4 mph - N/A   Overcast
9:58 AM 69.4 °F 67.6 °F 94% 29.88 in 10.0 mi South 10.4 mph - N/A   Overcast
10:58 AM 71.2 °F 68.0 °F 89% 29.87 in 10.0 mi South 13.8 mph - N/A   Mostly Cloudy
11:58 AM 72.1 °F 68.2 °F 87% 29.86 in 10.0 mi South 16.1 mph 23.0 mph 0.01 in   Overcast
12:58 PM 74.5 °F 68.2 °F 81% 29.85 in 10.0 mi South 19.6 mph - N/A   Overcast
1:03 PM 75.2 °F 68.0 °F 78% 29.87 in 10.0 mi South 15.0 mph - N/A   Overcast
1:13 PM 75.2 °F 68.0 °F 78% 29.85 in 10.0 mi South 12.7 mph 25.3 mph N/A   Overcast
1:33 PM 75.2 °F 68.0 °F 78% 29.84 in 10.0 mi South 18.4 mph 25.3 mph N/A   Overcast
1:38 PM 75.2 °F 68.0 °F 78% 29.84 in 10.0 mi South 19.6 mph 25.3 mph N/A   Mostly Cloudy
1:58 PM 75.6 °F 68.5 °F 79% 29.81 in 10.0 mi South 19.6 mph 27.6 mph N/A   Overcast
2:58 PM 77.4 °F 68.9 °F 75% 29.79 in 10.0 mi South 20.7 mph 27.6 mph N/A   Mostly Cloudy
3:03 PM 77.0 °F 68.0 °F 74% 29.80 in 10.0 mi South 23.0 mph 27.6 mph N/A   Mostly Cloudy
3:18 PM 77.0 °F 69.8 °F 78% 29.80 in 10.0 mi South 19.6 mph 29.9 mph N/A   Mostly Cloudy
3:28 PM 77.0 °F 69.8 °F 78% 29.79 in 10.0 mi South 19.6 mph 27.6 mph N/A   Mostly Cloudy
3:33 PM 77.0 °F 69.8 °F 78% 29.79 in 10.0 mi South 19.6 mph 27.6 mph N/A   Mostly Cloudy
3:58 PM 76.5 °F 69.1 °F 78% 29.77 in 10.0 mi South 17.3 mph 23.0 mph N/A   Overcast
4:58 PM 76.3 °F 69.1 °F 78% 29.75 in 10.0 mi South 18.4 mph 24.2 mph N/A   Mostly Cloudy
5:58 PM 74.8 °F 69.8 °F 84% 29.75 in 10.0 mi South 12.7 mph - N/A   Partly Cloudy
6:58 PM 72.5 °F 69.4 °F 90% 29.73 in 10.0 mi SSE 10.4 mph - N/A   Clear
7:58 PM 71.4 °F 69.3 °F 93% 29.73 in 10.0 mi SSE 16.1 mph - N/A   Mostly Cloudy
8:00 PM 71.6 °F 69.8 °F 94% 29.76 in 10.0 mi SSE 19.6 mph - N/A   Mostly Cloudy
8:05 PM 71.6 °F 69.8 °F 94% 29.76 in 10.0 mi SSE 15.0 mph - N/A   Mostly Cloudy
8:10 PM 71.6 °F 69.8 °F 94% 29.76 in 10.0 mi SSE 17.3 mph - N/A   Mostly Cloudy
8:58 PM 70.0 °F 68.7 °F 96% 29.74 in 10.0 mi SSE 16.1 mph 25.3 mph N/A   Overcast
9:03 PM 69.8 °F 68.0 °F 94% 29.76 in 10.0 mi SSE 18.4 mph - N/A   Overcast
9:08 PM 69.8 °F 68.0 °F 94% 29.75 in 10.0 mi SSE 19.6 mph 24.2 mph N/A   Overcast
9:47 PM 69.8 °F 68.0 °F 94% 29.73 in 10.0 mi SSE 18.4 mph 25.3 mph N/A Rain Light Rain
9:58 PM 68.9 °F 68.0 °F 97% 29.72 in 10.0 mi SSE 19.6 mph 26.5 mph 0.00 in Rain Light Rain
10:01 PM 68.0 °F 68.0 °F 100% 29.74 in 10.0 mi SSE 18.4 mph 27.6 mph N/A   Overcast
10:04 PM 68.0 °F 68.0 °F 100% 29.74 in 10.0 mi SSE 18.4 mph 27.6 mph N/A   Light Drizzle
10:19 PM 68.0 °F 68.0 °F 100% 29.76 in 10.0 mi South 12.7 mph - N/A Rain Light Rain
10:39 PM 68.0 °F 68.0 °F 100% 29.75 in 10.0 mi South 16.1 mph - N/A Rain Light Rain
10:58 PM 67.8 °F 66.9 °F 97% 29.73 in 10.0 mi South 13.8 mph - 0.01 in Rain Light Rain
11:53 PM 68.0 °F 66.2 °F 94% 29.71 in 10.0 mi SSE 15.0 mph - N/A Rain Light Rain
11:56 PM 68.0 °F 66.2 °F 94% 29.71 in 10.0 mi SSE 13.8 mph - N/A   Mostly Cloudy
11:58 PM 68.0 °F 66.2 °F 94% 29.69 in 10.0 mi SSE 13.8 mph - 0.02 in   Mostly Cloudy